Location: ???????
(55.7027°N, 37.3832°E)
Time: 22:58:57
(UTC+00:00)

Meteor 1-25 Rocket - Pass Details

Date: 14 April 2026
Orbit: 835 x 891 km, 81.2° (Epoch: 13 May)

Event Time Altitude Azimuth Distance (km) Brightness Sun altitude
Rises 22:59:56 0° 344° (NNW) 3,517 8.2 -22.0°
Reaches altitude 10° 23:02:25 10° 341° (NNW) 2,572 7.3 -21.9°
Maximum altitude 23:08:11 63° 262° (W) 992 4.3 -21.5°
Enters shadow 23:09:54 44° 203° (SSW) 1,216 4.5 -21.4°
